Vorticity
5 -2 -1 10 -12 1 14 10 4 4 5 5 5 3 3 3 3 4 5 6 6 5 5 6 4 3 5 3 3 6 8 10 7 5 6 4 2 3 5 10 6 20 16
3 13 1 8 -1 6 11 4 5 5 6 5 6 5 3 2 3 2 1 1 1 2 2 3 4 6 3 3 5 2 1 4 9 10 6 6 5 3 -1 1 6 6 15
4 2 8 10 2 11 6 9 7 7 4 3 4 5 5 5 6 3 2 1 2 3 4 3 5 5 4 4 5 4 5 5 1 2 9 9 4 4 5 2 0 2 7
3 -1 3 5 15 6 11 5 2 4 1 -0 1 2 1 3 5 4 3 3 5 3 -1 0 3 3 5 6 4 3 4 5 3 6 2 2 8 8 5 5 5 0 1
-12 20 9 10 9 9 1 -1 -3 1 3 2 1 4 2 1 0 1 2 3 2 3 3 4 3 1 3 4 5 5 4 3 3 5 3 7 3 3 8 8 5 5 3
4 11 11 12 5 0 -0 2 -0 2 4 4 4 3 3 2 2 3 1 3 4 4 2 4 7 6 5 4 4 3 6 4 2 1 5 5 5 6 3 4 9 9 4
4 14 9 5 -1 -1 -1 1 3 4 2 3 4 5 5 5 5 5 6 8 10 9 9 7 7 5 6 8 10 6 4 5 4 3 1 2 5 6 7 4 2 5 11
12 7 1 1 -0 2 4 5 3 2 5 7 6 6 8 7 9 11 11 11 12 14 13 12 13 13 12 8 8 9 8 6 3 5 6 4 4 6 3 6 4 3 4
1 1 0 2 4 6 1 1 3 4 5 4 7 9 12 8 5 -1 1 1 4 6 8 10 10 9 9 9 9 8 8 9 6 4 4 7 7 6 7 3 6 5 2
0 1 4 5 5 2 3 4 9 6 5 8 5 7 11 11 12 19 13 13 12 12 10 9 10 8 7 7 8 9 8 7 6 7 6 4 7 10 11 8 5 5 6
1 5 3 2 2 6 7 10 1 3 2 12 13 13 10 12 12 17 15 23 16 11 13 14 13 12 15 8 7 5 3 6 8 6 9 10 7 7 10 13 12 7 4
5 4 3 4 8 9 7 4 4 11 11 10 7 12 18 27 30 24 33 29 35 35 35 41 33 32 34 24 18 14 12 14 10 9 10 10 11 11 7 9 12 13 11
5 3 2 1 4 3 4 7 8 9 4 14 24 34 36 21 10 21 18 21 19 24 41 35 41 45 48 45 42 34 27 20 19 11 9 11 10 10 12 8 8 13 19
3 4 2 3 4 8 9 13 7 6 24 38 33 21 9 14 34 7 27 30 28 16 12 20 24 27 22 24 27 34 42 39 34 27 19 9 10 10 9 11 9 10 15
1 1 4 6 8 9 8 3 11 36 42 25 15 16 22 36 11 35 7 6 9 11 8 10 5 8 12 13 13 16 18 28 41 41 40 30 20 14 11 8 9 8 9
1 6 7 9 9 8 8 23 47 36 27 21 27 28 21 9 22 9 11 12 10 8 7 9 10 9 7 7 7 6 7 8 11 24 33 37 34 28 18 14 12 11 5
7 7 9 12 9 14 33 52 31 30 34 26 25 20 9 3 13 9 8 13 14 14 14 16 17 19 16 8 6 7 7 7 7 9 13 24 34 35 31 20 12 11 12
8 8 8 8 15 34 48 28 32 23 8 -5 10 11 13 9 9 18 11 20 21 18 19 21 24 25 24 24 16 9 7 7 6 8 7 11 14 26 38 33 24 14 15
7 7 11 14 37 43 36 26 15 3 6 1 3 16 2 16 11 19 21 21 8 6 9 9 11 9 9 23 24 20 16 13 10 8 10 10 11 9 24 33 27 24 18
4 12 20 34 40 32 20 8 9 3 5 4 9 13 9 13 18 24 9 10 12 17 19 17 17 16 13 9 18 25 19 17 15 14 11 8 13 10 11 34 33 22 17
14 19 31 36 28 21 11 8 9 4 5 7 12 3 20 13 24 8 11 17 11 16 22 21 25 22 22 19 9 23 21 17 16 16 17 15 8 15 19 2 7 45 28
18 30 33 29 22 14 6 10 9 3 3 11 7 19 13 23 9 11 10 8 11 18 20 26 24 22 19 10 20 26 25 19 15 18 19 17 10 24 16 1 33 -2 30
29 31 30 22 19 7 9 16 10 5 5 13 4 21 17 18 9 11 6 9 13 23 23 27 20 16 25 27 30 28 22 22 16 17 21 22 15 18 17 -14 21 -11 15
27 27 27 19 13 6 9 11 7 5 13 10 19 14 26 10 11 7 8 13 18 21 27 28 22 25 25 30 23 17 24 23 19 15 24 25 16 10 26 -3 -0 5 9
25 30 19 16 12 12 10 10 9 8 8 6 23 10 24 8 10 4 8 13 21 22 27 26 23 23 26 27 13 13 16 23 14 7 25 27 14 3 21 14 -4 4 20
25 26 15 14 8 7 8 8 7 14 6 9 24 13 20 8 9 5 9 12 20 19 26 26 23 21 28 24 15 16 20 20 12 5 32 25 9 12 13 27 10 1 1
Height
5796 5793 5790 5787 5785 5783 5779 5776 5773 5769 5767 5764 5762 5761 5758 5755 5755 5755 5755 5753 5752 5751 5751 5752 5752 5751 5751 5750 5751 5750 5749 5751 5753 5754 5757 5758 5759 5759 5762 5764 5767 5768 5771
5788 5785 5782 5780 5778 5775 5772 5768 5764 5761 5759 5757 5756 5753 5750 5747 5745 5744 5743 5743 5742 5741 5741 5740 5740 5741 5741 5741 5742 5742 5742 5743 5743 5746 5749 5751 5753 5754 5755 5757 5758 5761 5764
5779 5777 5775 5772 5769 5765 5762 5759 5755 5753 5750 5748 5746 5744 5741 5738 5735 5733 5731 5729 5728 5728 5728 5728 5728 5728 5729 5730 5730 5730 5732 5734 5734 5736 5738 5741 5744 5745 5748 5750 5750 5753 5756
5773 5770 5767 5762 5759 5756 5752 5749 5746 5742 5738 5736 5734 5731 5727 5725 5722 5720 5718 5716 5714 5712 5711 5711 5712 5712 5713 5715 5716 5717 5718 5720 5722 5724 5727 5729 5731 5734 5738 5739 5741 5743 5745
5765 5760 5757 5753 5749 5746 5742 5738 5733 5730 5727 5724 5720 5716 5712 5708 5705 5702 5701 5699 5698 5696 5693 5693 5693 5694 5695 5696 5698 5700 5702 5703 5707 5709 5712 5715 5719 5722 5726 5729 5732 5734 5736
5753 5749 5745 5742 5737 5734 5730 5726 5721 5716 5712 5708 5704 5701 5697 5692 5688 5683 5679 5678 5676 5674 5673 5672 5672 5673 5674 5675 5677 5679 5681 5684 5688 5692 5695 5699 5703 5708 5712 5716 5720 5724 5727
5744 5740 5735 5731 5727 5721 5715 5709 5704 5699 5693 5688 5683 5680 5676 5671 5667 5663 5658 5655 5651 5648 5646 5646 5646 5648 5649 5651 5653 5656 5660 5663 5666 5669 5675 5681 5685 5689 5696 5700 5705 5710 5715
5734 5729 5725 5718 5712 5705 5698 5692 5686 5679 5674 5667 5660 5656 5652 5651 5645 5641 5636 5630 5626 5623 5621 5619 5619 5620 5621 5623 5626 5630 5634 5639 5643 5647 5651 5657 5665 5671 5675 5682 5689 5695 5701
5722 5717 5711 5705 5698 5692 5684 5677 5669 5661 5652 5644 5634 5625 5617 5613 5607 5607 5602 5597 5594 5593 5590 5589 5590 5589 5591 5594 5596 5601 5605 5612 5617 5623 5628 5632 5639 5648 5657 5662 5670 5677 5683
5711 5706 5700 5693 5684 5675 5666 5656 5647 5638 5628 5620 5611 5601 5592 5582 5576 5576 5573 5567 5563 5560 5557 5555 5554 5554 5556 5562 5567 5572 5576 5581 5589 5595 5602 5608 5614 5621 5631 5641 5648 5656 5665
5700 5691 5682 5672 5662 5653 5644 5634 5623 5614 5605 5597 5587 5578 5569 5558 5546 5532 5528 5530 5523 5522 5520 5518 5518 5516 5517 5525 5533 5538 5542 5548 5557 5566 5573 5581 5589 5597 5604 5615 5625 5634 5643
5682 5672 5663 5653 5642 5631 5621 5613 5602 5589 5580 5569 5558 5545 5534 5524 5517 5506 5497 5489 5485 5492 5488 5485 5483 5480 5483 5489 5494 5502 5509 5515 5526 5535 5545 5553 5562 5572 5580 5589 5601 5614 5620
5666 5656 5646 5635 5624 5612 5600 5587 5575 5560 5549 5535 5522 5514 5502 5494 5488 5483 5474 5467 5460 5463 5462 5459 5455 5454 5454 5458 5463 5470 5477 5485 5494 5505 5515 5526 5536 5546 5555 5565 5577 5588 5602
5653 5643 5632 5618 5604 5589 5574 5559 5545 5531 5519 5505 5495 5488 5484 5476 5468 5462 5456 5447 5446 5444 5445 5442 5439 5437 5436 5436 5440 5445 5450 5457 5465 5474 5486 5499 5511 5520 5530 5541 5553 5565 5577
5636 5625 5611 5597 5581 5564 5549 5534 5518 5503 5491 5482 5474 5469 5464 5457 5453 5447 5439 5433 5428 5429 5431 5431 5427 5424 5423 5424 5424 5427 5431 5435 5440 5447 5457 5469 5483 5496 5505 5516 5529 5543 5554
5615 5601 5587 5572 5557 5543 5527 5511 5494 5480 5472 5465 5459 5453 5448 5445 5440 5434 5428 5421 5414 5407 5408 5413 5413 5411 5410 5410 5411 5412 5415 5420 5424 5428 5433 5442 5453 5467 5481 5492 5506 5519 5531
5595 5581 5567 5551 5534 5518 5501 5486 5474 5466 5458 5452 5447 5443 5438 5432 5428 5421 5414 5407 5400 5392 5387 5393 5391 5393 5393 5393 5394 5395 5399 5404 5410 5414 5418 5424 5430 5441 5455 5467 5479 5493 5508
5577 5562 5546 5529 5512 5496 5480 5468 5461 5455 5450 5445 5440 5433 5428 5422 5415 5407 5400 5393 5385 5379 5372 5370 5374 5374 5373 5374 5375 5377 5382 5386 5391 5399 5405 5410 5415 5422 5432 5443 5455 5471 5484
5557 5541 5525 5508 5494 5479 5467 5459 5453 5448 5442 5437 5430 5424 5418 5409 5402 5394 5386 5380 5374 5368 5361 5354 5358 5357 5357 5355 5355 5358 5363 5368 5374 5382 5391 5398 5403 5409 5415 5423 5432 5445 5460
5537 5520 5504 5488 5475 5465 5458 5452 5446 5440 5434 5427 5420 5412 5405 5396 5388 5381 5375 5369 5361 5354 5347 5340 5337 5339 5339 5338 5338 5340 5344 5349 5356 5364 5374 5384 5391 5397 5403 5409 5416 5426 5440
5516 5501 5486 5472 5463 5456 5449 5444 5438 5432 5426 5419 5410 5402 5393 5385 5376 5370 5364 5357 5349 5340 5331 5326 5320 5319 5320 5321 5322 5323 5326 5333 5341 5349 5358 5369 5379 5386 5392 5399 5405 5413 5424
5498 5483 5469 5460 5452 5447 5441 5436 5430 5424 5417 5409 5402 5393 5384 5375 5369 5362 5354 5345 5336 5325 5317 5309 5306 5304 5304 5304 5305 5307 5311 5319 5328 5334 5343 5354 5365 5374 5381 5390 5396 5404 5412
5482 5469 5457 5450 5443 5438 5433 5428 5422 5416 5409 5400 5392 5384 5376 5368 5361 5354 5346 5335 5325 5313 5304 5297 5293 5291 5289 5287 5290 5294 5299 5306 5315 5322 5332 5341 5352 5362 5371 5379 5386 5394 5401
5465 5455 5447 5441 5435 5431 5426 5420 5414 5408 5401 5392 5384 5375 5368 5361 5354 5347 5339 5328 5316 5305 5295 5286 5282 5279 5278 5278 5281 5286 5292 5299 5307 5314 5321 5331 5341 5351 5361 5370 5378 5385 5393
5452 5443 5437 5432 5427 5422 5417 5412 5407 5400 5393 5384 5375 5367 5360 5354 5348 5341 5332 5322 5310 5298 5288 5280 5275 5272 5271 5272 5276 5281 5286 5292 5300 5307 5313 5323 5331 5342 5352 5362 5369 5376 5384
5441 5434 5429 5424 5419 5415 5410 5405 5399 5392 5386 5377 5368 5360 5353 5348 5342 5336 5327 5318 5307 5295 5286 5278 5273 5270 5268 5269 5273 5277 5282 5288 5294 5301 5307 5315 5325 5336 5344 5352 5360 5367 5375